Location: Columbia
(38.9520°N, 92.3340°W)
Time: 10:34:24
(UTC-05:00)

Iridium 22 - Visible Passes

Search period start: 17 August 2017 00:00
Search period end: 27 August 2017 00:00
Orbit: 776 x 779 km, 86.4° (Epoch: 16 August)

Date Brightness Start Highest point End Pass type
(mag) Time Alt. Az. Time Alt. Az. Time Alt. Az.
18 Aug 7.3 05:46:31 10° NNE 05:51:22 38° E 05:56:12 10° SSE visible
18 Aug 9.3 20:27:50 10° WNW 20:28:11 10° WNW 20:28:33 10° WNW visible
19 Aug 8.3 05:13:44 10° NNE 05:17:38 21° ENE 05:21:30 10° SE visible
20 Aug 8.8 04:42:21 10° ENE 04:43:45 11° ENE 04:45:08 10° E visible
21 Aug 6.4 05:46:24 10° N 05:51:33 56° E 05:56:39 10° SSE visible
22 Aug 7.6 05:13:19 10° NNE 05:17:53 30° E 05:22:25 10° SE visible
23 Aug 8.4 04:40:51 10° NE 04:44:05 16° ENE 04:47:19 10° ESE visible
24 Aug 5.7 05:46:26 10° N 05:51:41 82° E 05:56:53 10° S visible
25 Aug 6.8 05:13:06 10° NNE 05:18:06 43° E 05:23:02 10° SSE visible
26 Aug 7.9 04:40:12 10° NNE 04:44:23 24° ENE 04:48:31 10° SE visible
